• In Uzbekistan
  • List of Countries
  • For 7 days
  • Water Temperature
  • Satellite Maps
  • Weather Map
  • Weather Widgets
  • user-avatar
    Login

    Hourly Weather Pitsunda

    Today, 22 August, Tuesday

    Time Temperature Precipitation Wind Pressure Humidity
    00:00 +28°C° 0 mm 4 mps 753 mmHg 32%
    01:00 +28°C° 0 mm 4 mps 753 mmHg 32%
    02:00 +28°C° 0 mm 3 mps 754 mmHg 31%
    03:00 +27°C° 0 mm 3 mps 754 mmHg 35%
    04:00 +27°C° 0.2 mm 3 mps 754 mmHg 38%
    05:00 +27°C° 0.2 mm 3 mps 755 mmHg 41%
    06:00 +26°C° 0.2 mm 3 mps 755 mmHg 44%
    07:00 +28°C° 0.2 mm 3 mps 755 mmHg 46%
    08:00 +30°C° 0.2 mm 2 mps 756 mmHg 48%
    09:00 +33°C° 0 mm 3 mps 756 mmHg 52%
    10:00 +34°C° 0 mm 3 mps 756 mmHg 51%
    11:00 +35°C° 0 mm 3 mps 756 mmHg 50%
    12:00 +36°C° 0 mm 3 mps 756 mmHg 50%
    13:00 +36°C° 0 mm 3 mps 756 mmHg 50%
    14:00 +36°C° 0 mm 4 mps 756 mmHg 51%
    15:00 +35°C° 0 mm 4 mps 756 mmHg 52%
    16:00 +34°C° 0.1 mm 4 mps 756 mmHg 59%
    17:00 +33°C° 0.1 mm 5 mps 756 mmHg 66%
    18:00 +32°C° 0.1 mm 5 mps 756 mmHg 73%
    19:00 +29°C° 0 mm 5 mps 756 mmHg 76%
    20:00 +28°C° 0 mm 5 mps 757 mmHg 78%
    21:00 +26°C° 0 mm 5 mps 757 mmHg 81%
    22:00 +26°C° 0 mm 4 mps 757 mmHg 80%
    23:00 +26°C° 0 mm 4 mps 757 mmHg 78%

    Tomorrow, 23 August, Wednesday

    Time Temperature Precipitation Wind Pressure Humidity
    00:00 +25°C° 0 mm 4 mps 757 mmHg 76%
    01:00 +25°C° 0.2 mm 4 mps 757 mmHg 73%
    02:00 +25°C° 0.2 mm 3 mps 757 mmHg 71%
    03:00 +25°C° 0.2 mm 3 mps 757 mmHg 68%
    04:00 +24°C° 0.6 mm 3 mps 757 mmHg 70%
    05:00 +24°C° 0.6 mm 3 mps 757 mmHg 72%
    06:00 +24°C° 0.6 mm 3 mps 757 mmHg 74%
    07:00 +26°C° 1 mm 2 mps 757 mmHg 73%
    08:00 +28°C° 1 mm 2 mps 757 mmHg 73%
    09:00 +30°C° 1 mm 2 mps 757 mmHg 72%
    10:00 +29°C° 1.3 mm 2 mps 758 mmHg 77%
    11:00 +28°C° 1.3 mm 3 mps 758 mmHg 82%
    12:00 +27°C° 1.3 mm 3 mps 759 mmHg 87%
    13:00 +28°C° 0.3 mm 3 mps 759 mmHg 82%
    14:00 +29°C° 0.3 mm 4 mps 760 mmHg 77%
    15:00 +30°C° 0.3 mm 4 mps 760 mmHg 71%
    16:00 +29°C° 0.1 mm 4 mps 760 mmHg 73%
    17:00 +29°C° 0.1 mm 4 mps 760 mmHg 74%
    18:00 +28°C° 0.1 mm 4 mps 761 mmHg 76%
    19:00 +27°C° 0.3 mm 3 mps 761 mmHg 79%
    20:00 +25°C° 0.3 mm 3 mps 761 mmHg 83%
    21:00 +24°C° 0.3 mm 3 mps 762 mmHg 86%
    22:00 +24°C° 0 mm 3 mps 762 mmHg 85%
    23:00 +22°C° 0 mm 3 mps 762 mmHg 84%

    Day after tomorrow, 24 August, Thursday

    Time Temperature Precipitation Wind Pressure Humidity
    00:00 +22°C° 0 mm 3 mps 762 mmHg 83%
    01:00 +22°C° 0.1 mm 3 mps 762 mmHg 81%
    02:00 +22°C° 0.1 mm 3 mps 762 mmHg 80%
    03:00 +22°C° 0.1 mm 3 mps 761 mmHg 79%
    04:00 +22°C° 0.1 mm 3 mps 761 mmHg 78%
    05:00 +21°C° 0.1 mm 3 mps 761 mmHg 77%
    06:00 +21°C° 0.1 mm 3 mps 762 mmHg 77%
    07:00 +25°C° 0 mm 3 mps 762 mmHg 70%
    08:00 +27°C° 0 mm 3 mps 762 mmHg 64%
    09:00 +30°C° 0 mm 2 mps 762 mmHg 58%
    10:00 +30°C° 0.1 mm 3 mps 762 mmHg 59%
    11:00 +30°C° 0.1 mm 3 mps 762 mmHg 60%
    12:00 +32°C° 0.1 mm 4 mps 762 mmHg 62%
    13:00 +32°C° 0.1 mm 4 mps 762 mmHg 62%
    14:00 +32°C° 0.1 mm 4 mps 762 mmHg 63%
    15:00 +32°C° 0.1 mm 4 mps 762 mmHg 63%
    16:00 +30°C° 0.1 mm 4 mps 762 mmHg 67%
    17:00 +29°C° 0.1 mm 4 mps 762 mmHg 70%
    18:00 +28°C° 0.1 mm 3 mps 762 mmHg 73%
    19:00 +27°C° 0 mm 3 mps 762 mmHg 75%
    20:00 +26°C° 0 mm 3 mps 763 mmHg 77%
    21:00 +25°C° 0 mm 3 mps 763 mmHg 79%
    22:00 +25°C° 0 mm 3 mps 763 mmHg 80%
    23:00 +24°C° 0 mm 3 mps 763 mmHg 80%

    25 August, Friday

    Time Temperature Precipitation Wind Pressure Humidity
    00:00 +24°C° 0 mm 2 mps 763 mmHg 80%
    01:00 +24°C° 0 mm 3 mps 763 mmHg 79%
    02:00 +24°C° 0 mm 3 mps 763 mmHg 79%
    03:00 +22°C° 0 mm 3 mps 763 mmHg 78%
    04:00 +22°C° 0 mm 3 mps 763 mmHg 78%
    05:00 +22°C° 0 mm 3 mps 763 mmHg 78%
    06:00 +22°C° 0 mm 3 mps 763 mmHg 78%
    07:00 +25°C° 0 mm 2 mps 763 mmHg 71%
    08:00 +28°C° 0 mm 2 mps 763 mmHg 64%
    09:00 +30°C° 0 mm 2 mps 763 mmHg 57%
    10:00 +30°C° 0 mm 2 mps 763 mmHg 57%
    11:00 +31°C° 0 mm 2 mps 763 mmHg 57%
    12:00 +31°C° 0 mm 2 mps 763 mmHg 58%
    13:00 +31°C° 0.1 mm 2 mps 763 mmHg 60%
    14:00 +31°C° 0.1 mm 2 mps 763 mmHg 63%
    15:00 +31°C° 0.1 mm 2 mps 762 mmHg 66%
    16:00 +30°C° 0.1 mm 2 mps 762 mmHg 69%
    17:00 +29°C° 0.1 mm 2 mps 762 mmHg 73%
    18:00 +28°C° 0.1 mm 1 mps 762 mmHg 76%
    19:00 +27°C° 0.1 mm 1 mps 763 mmHg 78%
    20:00 +26°C° 0.1 mm 1 mps 763 mmHg 81%
    21:00 +25°C° 0.1 mm 1 mps 763 mmHg 83%
    22:00 +25°C° 0 mm 2 mps 763 mmHg 83%
    23:00 +24°C° 0 mm 2 mps 763 mmHg 83%

    26 August, Saturday

    Time Temperature Precipitation Wind Pressure Humidity
    00:00 +24°C° 0 mm 2 mps 763 mmHg 83%
    01:00 +24°C° 0 mm 3 mps 762 mmHg 83%
    02:00 +22°C° 0 mm 3 mps 762 mmHg 82%
    03:00 +22°C° 0 mm 3 mps 762 mmHg 82%
    04:00 +22°C° 0 mm 3 mps 762 mmHg 81%
    05:00 +22°C° 0 mm 3 mps 762 mmHg 80%
    06:00 +22°C° 0 mm 3 mps 762 mmHg 79%
    07:00 +25°C° 0 mm 3 mps 762 mmHg 72%
    08:00 +28°C° 0 mm 3 mps 762 mmHg 64%
    09:00 +30°C° 0 mm 3 mps 762 mmHg 56%
    10:00 +31°C° 0 mm 2 mps 762 mmHg 54%
    11:00 +32°C° 0 mm 2 mps 761 mmHg 51%
    12:00 +34°C° 0 mm 2 mps 761 mmHg 48%
    13:00 +34°C° 0 mm 2 mps 761 mmHg 52%
    14:00 +32°C° 0 mm 2 mps 761 mmHg 56%
    15:00 +32°C° 0 mm 2 mps 761 mmHg 60%
    16:00 +31°C° 0 mm 2 mps 761 mmHg 67%
    17:00 +30°C° 0 mm 2 mps 761 mmHg 73%
    18:00 +29°C° 0 mm 2 mps 761 mmHg 79%
    19:00 +28°C° 0 mm 2 mps 761 mmHg 82%
    20:00 +27°C° 0 mm 1 mps 761 mmHg 85%
    21:00 +25°C° 0 mm 1 mps 761 mmHg 87%
    22:00 +25°C° 0 mm 1 mps 761 mmHg 86%
    23:00 +25°C° 0 mm 1 mps 761 mmHg 85%

    27 August, Sunday

    Time Temperature Precipitation Wind Pressure Humidity
    00:00 +24°C° 0 mm 1 mps 761 mmHg 84%
    01:00 +24°C° 0 mm 2 mps 761 mmHg 83%
    02:00 +24°C° 0 mm 2 mps 760 mmHg 83%
    03:00 +24°C° 0 mm 2 mps 760 mmHg 82%
    04:00 +23°C° 0 mm 2 mps 760 mmHg 82%
    05:00 +23°C° 0 mm 2 mps 760 mmHg 81%
    06:00 +23°C° 0 mm 2 mps 760 mmHg 81%
    07:00 +26°C° 0.2 mm 2 mps 760 mmHg 74%
    08:00 +28°C° 0.2 mm 2 mps 760 mmHg 67%
    09:00 +31°C° 0.2 mm 2 mps 760 mmHg 60%
    10:00 +32°C° 0 mm 2 mps 760 mmHg 59%
    11:00 +32°C° 0 mm 2 mps 759 mmHg 59%
    12:00 +34°C° 0 mm 2 mps 759 mmHg 58%
    13:00 +32°C° 0.1 mm 2 mps 759 mmHg 62%
    14:00 +33°C° 0.1 mm 3 mps 759 mmHg 66%
    15:00 +33°C° 0.1 mm 3 mps 759 mmHg 69%
    16:00 +31°C° 0.1 mm 3 mps 759 mmHg 72%
    17:00 +30°C° 0.1 mm 3 mps 758 mmHg 76%
    18:00 +30°C° 0.1 mm 3 mps 758 mmHg 79%
    19:00 +28°C° 0 mm 3 mps 759 mmHg 81%
    20:00 +27°C° 0 mm 3 mps 759 mmHg 83%
    21:00 +25°C° 0 mm 2 mps 759 mmHg 85%
    22:00 +25°C° 0 mm 2 mps 759 mmHg 84%
    23:00 +25°C° 0 mm 2 mps 759 mmHg 82%
    Show more